User: anonymous   Login
Location: South Tamworth Observatory
(43.8246°N, 71.3026°W)
Time: 08:51:08
(UTC-04:00)
Language:

Cosmos 2208 Rocket - Orbit

View from above orbital plane
View from above orbital plane
View from above satellite
View from above satellite

Ground track
Ground track

The orbit data is extracted from the following two-line orbital elements,

1 22081U 92053B   14304.06918956  .00000209  00000-0  85091-4 0  7174
2 22081 074.0471 031.4429 0036869 237.4655 122.2933 14.33125186161289
Epoch (UTC): 31 October 2014 01:39:37
Eccentricity: 0.0036869
inclination: 74.0471°
perigee height: 755 km
apogee height: 808 km
right ascension of ascending node: 31.4429°
argument of perigee: 237.4655°
revolutions per day: 14.33125186
mean anomaly at epoch: 122.2933°
orbit number at epoch: 16128

The dashed part of the orbit path shows where the satellite is in the earth's shadow,  

DLR